www.pogodaiklimat.ru

Погода и климат >> Архив погоды >> Индонезия >> Лхоксёмаве


ПОГОДА в Лхоксёмаве

  • Прогноз погоды в Лхоксёмаве
  • Монитор погоды в Лхоксёмаве

АРХИВ ПОГОДЫ в Лхоксёмаве

Время (UTC), дата Ветер
(напр.,м/с)
 
Видим.   Явления Облачность Т
(С)
Тd
(С)
f
(%)
Тe
(С)
Тes
(С)
Комфортность P
(гПа)
Po
(гПа)
Тmin
(С)
Tmax
(С)
R
(мм)
R24
(мм)
S
(см)
09 14.01 СВ 3 6000 м 8/4 450 м
[Cu med, cong As op Ci fib]
+30.0 +24.2 71 +42 +44 опасность
перегрева
1007.4 1003.9
12 14.01 штиль 0 6000 м 9/3 450 м
[Cu med, cong As op Ci sp]
+27.8 +24.4 82 +39 +39 очень
душно
1009.5 1006.1 +31.1
15 14.01 штиль 0 6000 м 8/3 450 м
[Cu med, cong As op Ci sp]
+26.1 +24.4 90 +36 +36 очень
душно
1011.3 1007.8
18 14.01 ЮЗ 1 6000 м 6/1 540 м
[Sc Ac As Ci sp]
+24.8 +24.0 95 +34 +34 очень
душно
1011.0 1007.5
21 14.01 ЮЗ 2 6000 м 3/1 540 м
[Sc diur, vesp As trans Ci fib]
+23.7 +22.9 95 +31 +31 очень
душно
1009.5 1006.0
00 15.01 ЮЗ 2 6000 м 5/1 540 м
[Sc As trans Ci sp]
+23.2 +21.8 92 +31 +32 очень
душно
1010.4 1006.9 +23.1
03 15.01 штиль 0 7000 м 4/4 450 м
[Cb calv As trans Ci sp]
+29.0 +22.5 68 +38 +47 очень
душно
1012.2 1008.7
06 15.01 С 3 6000 м 6/4 480 м
[Cu med, cong As trans Ci fib]
+30.4 +24.4 70 +42 +50 опасность
перегрева
1011.0 1007.5
09 15.01 С 3 6000 м 8/4 480 м
[Cu med, cong As trans Ci fib]
+30.0 +24.8 74 +43 +45 опасность
перегрева
1008.6 1005.1
12 15.01 Ю 1 5000 м мгла 9/4 480 м
[Cu med, cong As op Ci fib]
+27.2 +24.5 85 +38 +38 очень
душно
1010.1 1006.6 +31.0
15 15.01 штиль 0 6000 м 8/3 480 м
[Sc As op Ci fib]
+25.4 +24.0 92 +35 +35 очень
душно
1011.9 1008.4
18 15.01 штиль 0 6000 м 8/3 480 м
[Sc As op Ci fib]
+24.6 +23.6 94 +33 +33 очень
душно
1011.5 1008.0
21 15.01 ЮЗ 2 6000 м 8/3 480 м
[Sc As op Ci fib]
+23.4 +21.8 91 +32 +32 очень
душно
1010.1 1006.6
00 16.01 Ю 2 6000 м 6/1 480 м
[Sc As trans Ci fib]
+22.6 +21.6 94 +30 +30 очень
душно
1010.5 1007.0 +22.6
03 16.01 С 1 8000 м 6/3 480 м
[Sc As trans Ci fib]
+29.2 +23.7 72 +40 +47 очень
душно
1012.5 1009.0
06 16.01 СВ 3 7000 м 6/3 480 м
[Cu med, cong As trans Ci fib]
+30.6 +22.9 64 +41 +49 опасность
перегрева
1010.8 1007.3
09 16.01 СВ 3 6000 м 4/1 500 м
[Cu hum As trans Ci fib]
+29.6 +24.3 73 +41 +46 опасность
перегрева
1008.2 1004.7
12 16.01 СВ 1 6000 м 8/3 480 м
[Cu med, cong As trans Ci fib]
+28.0 +24.0 79 +39 +39 очень
душно
1009.5 1006.0 +31.1
15 16.01 штиль 0 6000 м 4/1 500 м
[Sc As trans Ci fib]
+26.5 +24.3 88 +37 +37 очень
душно
1011.6 1008.1
18 16.01 ЮВ 2 6000 м 6/3 500 м
[Sc As op Ci fib]
+24.6 +23.3 92 +33 +33 очень
душно
1010.6 1007.1
21 16.01 штиль 0 6000 м 6/3 500 м
[Sc As op Ci fib]
+23.8 +22.7 94 +31 +31 очень
душно
1009.1 1005.6
00 17.01 штиль 0 6000 м 8/3 480 м
[Cu med, cong As op Ci fib]
+22.9 +21.8 94 +31 +31 очень
душно
1010.1 1006.6 +22.6
03 17.01 ЮВ 3 8000 м 9/3 500 м
[Sc Ac As Ci fib]
+28.6 +23.3 73 +39 +43 очень
душно
1011.5 1008.0
06 17.01 СВ 3 8000 м 8/4 480 м
[Cu med, cong As op Ci fib]
+30.6 +22.5 62 +40 +46 очень
душно
1010.0 1006.5
09 17.01 СВ 3 7000 м 9/4 480 м
[Cu med, cong As op Ci fib]
+29.8 +22.4 65 +39 +41 очень
душно
1007.8 1004.0
12 17.01 В 3 6000 м 10/4 480 м
[Cu med, cong Ac As Ci fib]
+28.2 +23.8 77 +39 +39 очень
душно
1008.5 1005.1 +31.8
15 17.01 В 3 6000 м 8/3 300 м
[Sc As op Ci fib]
+26.2 +23.8 87 +36 +36 очень
душно
1010.9 1007.4
18 17.01 ЮВ 5 4000 м слаб. дождь 10/4 450 м
[Cb cap As op]
+24.4 +22.5 89 +32 +32 очень
душно
1011.0 1007.5 0.3
21 17.01 Ю 2 6000 м {дождь} 10/3 500 м
[Sc As op Ci fib]
+24.3 +22.7 91 +32 +32 очень
душно
1008.9 1005.4 0.0
00 18.01 штиль 0 6000 м в посл. час дождь 10/6 500 м
[Sc As op]
+24.6 +23.3 92 +33 +33 очень
душно
1010.0 1006.5 +22.9 2
03 18.01 ЮВ 2 5000 м в посл. час дождь 10/6 500 м
[Sc As op]
+25.0 +23.7 93 +34 +35 очень
душно
1012.3 1008.8 9
06 18.01 Ю 3 6000 м слаб. дождь 10/4 450 м
[Cu Sc As op]
+25.6 +23.9 90 +35 +37 очень
душно
1010.6 1007.1 4
09 18.01 ЮВ 5 10 км {дождь} 10/5 450 м
[Cu med, cong As op]
+27.5 +22.6 75 +36 +37 очень
душно
1007.7 1004.2 0.0
12 18.01 В 3 7000 м {дождь} 10/5 450 м
[Cu med, cong As op]
+26.3 +23.2 83 +35 +35 очень
душно
1009.0 1005.6 +28.4 0.0
15 18.01 ЮВ 1 6000 м 10/5 450 м
[Cu med, cong As op]
+25.5 +23.5 89 +35 +35 очень
душно
1011.4 1008.0
18 18.01 штиль 0 6000 м 9/4 480 м
[Sc As op Ci fib]
+24.9 +23.6 92 +34 +34 очень
душно
1010.1 1006.7
21 18.01 штиль 0 6000 м 10/5 480 м
[Cu Sc As op Ci fib]
+24.2 +22.9 92 +32 +32 очень
душно
1008.5 1005.1
00 19.01 штиль 0 7000 м 10/4 500 м
[Sc As op Ci fib]
+24.0 +23.3 96 +32 +32 очень
душно
1009.2 1005.7 +22.9 6
03 19.01 В 4 7000 м 10/4 450 м
[Cb cap As op]
+28.6 +23.6 74 +39 +40 очень
душно
1011.2 1007.7
06 19.01 В 2 6000 м 10/4 450 м
[Cb cap As op]
+29.2 +23.2 70 +39 +41 очень
душно
1009.9 1006.4
09 19.01 В 5 6000 м 10/10 450 м
[]
+30.2 +22.9 65 +40 +40 очень
душно
1007.5 1004.0
12 19.01 В 4 5000 м 8/3 480 м
[Cu Sc As op Ci fib]
+27.8 +23.4 77 +38 +38 очень
душно
1009.2 1005.7 +31.4
15 19.01 Ю 2 5000 м 6/3 480 м
[Cu med, cong As op Ci fib]
+26.6 +24.2 87 +37 +37 очень
душно
1012.0 1008.5
18 19.01 ЮЗ 1 6000 м 6/3 450 м
[Cu med, cong As trans Ci fib]
+26.0 +24.0 89 +36 +36 очень
душно
1011.6 1008.1
21 19.01 З 1 6000 м 8/4 420 м
[Cb cap As op Ci fib]
+25.4 +23.6 90 +35 +35 очень
душно
1009.7 1006.2
00 20.01 ЮВ 5 5000 м слаб. дождь 10/4 480 м
[Sc As op Ci sp]
+23.6 +22.6 94 +31 +31 очень
душно
1011.0 1007.5 +23.6 2
03 20.01 Ю 2 7000 м {дождь} 10/3 500 м
[Sc Ac As Ci sp]
+26.3 +23.0 82 +35 +39 очень
душно
1013.1 1009.6 0.1
06 20.01 СВ 3 7000 м {дождь} 10/4 450 м
[Cu med, cong Ac As Ci sp]
+29.6 +24.1 72 +41 +45 опасность
перегрева
1011.3 1007.8 0.1
09 20.01 СВ 2 6000 м 10/4 450 м
[Cb cap As op Ci fib]
+29.8 +23.5 69 +40 +43 очень
душно
1008.8 1005.3
12 20.01 В 2 6000 м 8/4 450 м
[Cb cap As op Ci fib]
+29.2 +23.2 70 +39 +39 очень
душно
1010.3 1006.9
15 20.01 штиль 0 6000 м 8/4 450 м
[Cb cap As op Ci fib]
+28.4 +22.4 70 +37 +37 очень
душно
1013.3 1009.6
18 20.01 ЮЗ 1 6000 м 8/1 480 м
[Cu Sc Ac trans Ci fib]
+24.9 +23.8 94 +34 +34 очень
душно
1012.1 1008.6
21 20.01 штиль 0 6000 м 6/3 480 м
[Cu Sc Ac trans Ci fib]
+24.2 +23.5 96 +33 +33 очень
душно
1010.2 1006.7
00 21.01 штиль 0 5000 м мгла 6/1 480 м
[Cu hum As op Ci fib]
+23.2 +22.2 94 +32 +32 очень
душно
1011.4 1007.9 +23.2 0.1
03 21.01 штиль 0 5000 м 6/1 480 м
[Cu hum As op Ci fib]
+29.2 +23.7 72 +40 +50 очень
душно
1013.6 1010.1
06 21.01 С 2 6000 м 6/3 480 м
[Cu med, cong As op Ci fib]
+29.6 +24.7 75 +42 +52 опасность
перегрева
1012.4 1008.9

 

Местоположение метеостанции Лхоксёмаве (Индонезия): широта 5.23 долгота 97.20 высота над уровнем моря 87 м.

В архиве по умолчанию представлена погода в Лхоксёмаве за последнюю неделю. Архивные данные за месяц целиком и за предыдущие месяцы, начиная с января 2011 года, Вы можете получить, выбрав интересующий диапазон дат из раскрывающегося списка и нажав кнопку "Ввод!".


*Определитесь, кто Вы:
робот инопланетянин человек

Внимание! Время в таблицах - всемирное. Для получения местного времени необходимо прибавить поправку, которая равна 7 ч.

Смотрите также архив погоды в соседних городах и на ближайших метеорологических станциях:

Погода в Меулабохе (Индонезия) (162 км)
Погода в Банда-Ачехе (Индонезия) (200 км)
Погода в Сабанге (Индонезия) (220 км)
Погода в Белаване (Индонезия) (230 км)
Погода в Медан Полония (Индонезия) (247 км)
Погода в Лангкави (Малайзия) (306 км)
Погода на Пхукете (Таиланд) (323 км)
Погода на Ко Ланта (Таиланд) (328 км)
Погода в Пенанге (Малайзия) (339 км)
Погода в Пхукет аэропорту (Таиланд) (345 км)

Пояснения к столбцам:

Ветер - указаны скорость ветра в м/с - средняя за 10 мин, порывы в срок и между сроками (в фигурных скобках) и направление, откуда дует ветер: С - северный, СВ - северо-восточный, В - восточный, ЮВ - юго-восточный, Ю - южный, ЮЗ - юго-западный, З - западный, СЗ - северо-западный.
Видимость - горизонтальная дальность видимости в метрах или километрах. При видимости от 1 до 10 км при отсутствии осадков обычно наблюдается дымка, при ухудшении видимости до 1 км и менее - туман. В сухую погоду видимость может ухудшаться дымом, пылью или мглою.
Явления - указаны атмосферные явления, наблюдавшиеся в срок или в последний час перед сроком; фигурными скобками обозначены явления, наблюдавшиеся между сроками (за 1-3 часа до срока); квадратными скобками обозначены град или гололедные отложения с указанием их диаметра в мм.
Облачность - указаны через наклонную черту общая и нижняя облачность в баллах и высота нижней границы облаков в метрах; квадратными скобками обозначены формы облаков: Ci - перистые, Cs - перисто-слоистые, Cc - перисто-кучевые, Ac - высококучевые, As - высокослоистые, Sc - слоисто-кучевые, Ns - слоисто-дождевые, Cu - кучевые, Cb - кучево-дождевые. Подробнее классификацию облаков см. в Атласе облаков (PDF).
T - Температура воздуха - температура, измеренная на высоте 2 м над землей.
Td - Температура точки росы - температура, при понижении до которой содержащийся в воздухе водяной пар достигнет насыщения.
f - Относительная влажность воздуха - влажноcть воздуха, измеренная на высоте 2 м над землей.
Te - Эффективная температура - температура, которую ощущает одетый по сезону человек в тени. Характеристика душности погоды. При расчете учитывается влияние влажности воздуха и скорости ветра на теплоощущения человека.
Tes - Эффективная температура на солнце - температура, которую ощущает человек, с поправкой на солнечный нагрев. Характеристика знойности погоды. Зависит от высоты солнца над горизонтом, облачности и скорости ветра. Ночью, в пасмурную погоду, а также при ветре 12 м/с и более поправка равна нулю.
P - Атмосферное давление - приведенное к уровню моря атмосферное давление.
Po - Атмосферное давление - измеренное на уровне метеостанции атмосферное давление.
Tmin - Минимальная температура - минимум температуры воздуха на высоте 2 м над землей.
Tmax - Максимальная температура - максимум температуры воздуха на высоте 2 м над землей.
R - Количество осадков - Количество выпавших осадков за период времени, мм. При наведении курсора мыши на число - период времени, за который выпало указанное количество осадков.
R24 - Количество осадков - Количество выпавших осадков за 24 часа, мм.
S - Снежный покров - Высота снежного покрова, см. При наведении курсора мыши на число - состояние снежного покрова и степень покрытия местности в баллах.